sat.trackr.live / text

‹ back to catalog

STARLINK-11162 [DTC]

NORAD 60123 · 2024-118L

PAYLOAD ACTIVE UNKNOWN

§ Identity

Operator
Country
US
Launch date
2024-06-24
Launch site
AFWTR
Launch vehicle
Mass (kg)
RCS (m²)

Purposes: comms

External: N2YO · Heavens-Above · Gunter

§ Orbital elements

Epoch: 2026-05-25T03:10:02.246016Z

Period
91.74 min
Inclination
53.1582°
Eccentricity
0.0001219
Mean motion
15.69709177 rev/d
Perigee alt
358.9 km
Apogee alt
360.6 km
Semi-major
6,737.9 km
B*
9.1031e-5
RAAN
204.1174°
Arg perigee
78.2861°
Mean anomaly
281.8293°
Rev number
11,000

§ Raw data

STARLINK-11162 [DTC]1 60123U 24118L   26145.13197044  .00010453  00000+0  91031-4 0  99952 60123  53.1582 204.1174 0001219  78.2861 281.8293 15.69709177110009

JSON: /api/v1/satellites/60123 · /tle

For live sub-satellite position, see the globe view (requires WebGL).

§ Visibility from observer

Set your observer location to see the next 7 days of passes ≥ 10°. The values pass through the URL so the page stays shareable.

No JS? Fill the form by hand. The geolocation button needs JavaScript.